Theta_e
306 307 308 309 309 309 309 309 310 309 308 308 309 310 312 313 312 311 310 312 313 312 313 314 314 314 314 315 314 315 315 316 316 316 316 317 317 315 314 315 317 316 315 313 312 313 313 313 313 313 317 319 317 318 315 319 325 330 335 326 319 323 323 324 328 323 317 320 322 317 314 314 317 317 313 312 314 319 317 315 315 313 311 312 311 310 310 311
307 307 308 309 309 309 310 310 311 310 309 309 309 309 312 314 314 313 312 313 313 313 314 314 314 314 314 315 314 314 315 315 316 315 316 318 318 316 315 316 316 316 314 312 313 313 314 315 313 314 322 320 315 319 320 317 323 338 332 316 324 334 326 324 328 325 318 316 318 317 314 313 314 314 312 313 317 319 317 315 315 315 315 312 310 310 310 309
308 307 308 309 309 309 310 310 311 310 309 309 309 310 312 313 315 314 313 313 314 314 314 314 315 315 315 315 315 314 314 315 316 315 317 318 318 316 316 315 314 314 313 312 313 312 314 316 312 316 324 321 317 321 325 319 320 331 324 319 334 333 323 323 324 322 319 316 318 319 314 313 314 313 312 313 316 317 317 316 315 316 316 314 311 307 307 307
308 308 308 308 309 309 309 310 311 311 309 310 310 311 312 312 314 315 314 314 314 315 316 316 316 317 317 316 316 314 314 317 316 315 316 317 316 316 315 314 313 313 313 313 313 313 314 313 313 318 323 321 321 321 323 321 319 319 320 327 332 321 319 323 324 324 320 316 316 317 316 315 315 313 313 313 315 317 316 316 314 315 314 313 311 304 303 305
309 309 308 308 308 309 309 310 311 311 310 311 311 311 312 313 314 315 315 315 316 317 317 318 318 319 318 318 317 314 317 321 316 313 315 316 316 314 314 313 313 313 313 313 313 313 313 312 314 321 322 318 320 320 320 322 318 318 322 328 328 320 317 321 324 323 318 315 314 317 317 316 314 313 314 314 315 315 314 313 312 312 309 308 309 305 303 304
309 309 309 309 308 309 309 310 312 311 311 311 312 313 314 315 315 315 316 317 317 318 319 319 320 320 320 319 318 314 318 321 315 314 315 314 314 314 314 313 313 313 313 314 313 313 315 314 315 322 322 318 318 316 316 317 316 319 324 324 324 321 317 320 322 318 316 315 316 318 314 312 314 314 315 314 314 314 312 312 311 309 305 305 306 305 306 306
310 309 310 309 309 310 310 311 313 312 312 312 314 315 315 316 316 316 317 318 319 320 320 320 320 320 320 319 317 317 319 319 316 318 319 315 313 313 314 313 313 313 313 314 314 316 318 316 317 320 321 316 316 316 314 315 316 319 323 324 322 318 319 322 321 319 318 316 317 316 311 312 315 314 314 313 313 312 308 306 306 305 304 304 305 305 305 305
313 311 310 310 310 311 311 312 313 313 314 315 316 317 317 317 317 318 319 320 320 321 321 320 320 319 320 317 316 322 322 319 316 318 320 317 315 314 314 314 314 313 313 313 314 316 316 316 316 315 317 315 314 316 313 313 318 321 323 325 321 317 320 321 318 319 318 316 314 312 312 314 314 313 313 313 312 309 305 304 305 305 305 304 304 305 303 303
315 314 312 312 311 312 313 314 315 315 316 316 317 318 318 318 319 319 320 321 321 322 321 320 320 318 319 315 315 323 322 318 318 318 318 318 318 317 315 315 314 314 313 312 313 313 314 317 317 314 315 315 313 314 314 313 317 321 322 321 318 315 317 316 314 316 315 314 313 312 314 314 312 312 311 312 309 306 307 308 307 307 307 305 304 304 303 302
315 315 315 313 312 313 315 315 316 317 317 318 318 318 319 319 319 320 320 321 320 321 321 320 319 318 318 315 316 322 320 318 320 319 319 319 319 318 317 315 315 314 312 312 312 311 313 315 313 312 315 315 312 312 314 313 314 317 318 317 316 315 315 315 315 315 312 312 313 312 315 313 310 312 313 310 305 307 314 311 306 307 306 304 303 302 302 301
315 316 316 315 314 314 315 316 316 317 319 319 319 319 320 320 320 320 320 320 320 319 320 319 318 316 316 316 319 323 318 317 319 318 318 318 318 318 316 315 314 313 313 312 312 311 312 312 309 310 314 314 312 313 313 313 312 314 314 315 317 315 314 315 315 314 310 311 313 312 315 313 309 312 314 308 303 309 318 312 306 306 305 303 303 302 301 300
315 316 316 315 314 314 315 316 317 318 320 319 320 320 320 320 320 320 319 319 319 318 319 318 317 316 315 316 319 320 317 316 317 318 318 318 317 316 314 315 314 313 313 312 313 313 312 312 310 313 314 313 314 313 313 312 311 313 313 314 317 316 316 314 313 313 310 312 314 312 315 317 316 314 311 306 304 309 315 311 307 305 304 303 303 301 301 300
315 316 316 315 315 315 316 317 317 318 320 320 320 320 320 321 320 320 320 319 318 318 318 316 316 314 315 321 321 317 316 317 316 317 318 317 316 315 314 316 315 314 314 313 313 314 314 313 313 314 313 315 317 312 312 314 312 313 314 313 315 316 318 315 310 311 310 312 313 313 316 326 328 316 309 307 309 316 316 310 307 305 304 303 302 302 301 299
316 316 316 315 315 315 316 317 318 319 320 320 320 321 321 321 322 322 320 319 318 317 316 314 314 314 316 323 320 315 316 316 316 317 317 317 316 315 315 315 316 315 315 315 313 313 314 313 312 313 312 315 315 310 315 321 318 315 312 316 318 315 323 322 313 313 313 312 311 312 317 325 326 314 307 308 311 322 319 308 306 305 303 303 302 302 301 300
315 316 316 315 315 315 316 317 319 320 320 321 321 321 322 322 322 322 320 320 317 315 315 314 314 314 318 322 317 315 316 315 316 317 317 318 316 316 316 315 315 314 315 314 313 313 312 312 313 315 314 311 313 315 320 325 328 323 314 322 324 316 323 324 315 316 315 312 310 312 319 321 320 312 306 306 311 321 317 307 306 304 303 302 302 301 301 300
316 316 316 315 315 315 316 318 319 320 320 321 321 322 322 322 321 321 320 318 316 315 315 316 315 314 320 321 315 315 315 315 316 316 318 318 317 316 315 315 314 313 314 313 312 312 311 314 314 313 314 312 317 326 325 323 329 327 316 320 325 318 319 318 315 316 314 312 311 312 318 321 320 312 305 305 311 320 315 306 304 303 303 302 301 301 300 300
317 316 316 315 315 315 316 318 320 320 320 321 321 321 320 320 320 320 319 316 316 316 315 317 315 315 320 318 316 318 315 314 315 316 318 318 317 316 314 314 312 311 312 311 312 313 311 314 313 313 317 315 318 325 324 321 325 326 318 316 320 317 316 317 319 316 311 312 312 312 314 316 318 313 308 305 309 317 313 306 304 302 302 301 301 300 299 299
317 316 316 315 315 315 317 319 320 319 320 321 320 320 320 319 319 318 317 317 315 316 316 315 314 320 324 317 317 318 314 313 314 315 316 317 316 315 314 312 309 309 313 312 312 313 313 315 317 320 319 315 315 320 322 323 324 326 322 318 321 318 315 317 318 315 312 314 315 315 315 316 317 315 312 305 306 313 309 303 303 302 302 301 300 300 299 298
317 316 315 315 315 316 317 319 319 318 320 320 319 320 319 318 317 316 315 316 318 321 324 320 318 326 327 318 315 314 313 314 314 314 314 315 314 312 312 310 311 313 314 315 313 314 316 317 318 321 319 315 316 317 319 320 321 323 321 320 322 320 318 318 317 316 313 314 317 316 316 317 316 316 314 306 305 308 305 303 303 302 301 301 300 300 299 298
316 316 316 315 315 315 317 318 317 318 319 320 319 318 319 321 322 321 317 316 321 322 325 324 321 324 323 318 315 313 314 314 314 314 313 313 313 312 311 310 315 317 316 320 317 312 314 317 319 320 319 317 315 315 315 316 315 315 316 317 318 317 318 318 317 317 313 313 320 320 318 317 316 317 312 306 307 307 305 304 303 302 302 301 300 300 298 298
316 316 317 316 315 316 318 318 317 319 319 319 319 318 321 324 324 324 321 321 319 316 321 322 317 319 319 315 314 313 315 316 314 313 312 313 312 313 314 314 317 317 318 322 318 311 312 317 320 321 318 315 314 313 312 313 313 313 314 316 316 316 316 314 315 317 313 313 321 322 319 318 317 316 309 307 310 308 305 304 303 302 302 301 300 299 298 298
317 317 317 316 315 316 318 318 318 319 320 320 318 315 316 317 317 317 318 324 322 314 317 318 314 317 316 313 314 313 317 321 318 314 312 313 313 314 317 318 320 320 319 319 317 315 316 318 320 318 314 312 312 312 312 313 313 313 313 313 315 316 316 318 319 319 315 313 321 322 317 317 317 311 306 306 307 306 304 304 303 302 302 301 300 299 298 298
318 318 317 316 315 316 317 317 318 319 319 319 318 314 313 314 315 313 315 324 325 318 318 320 318 319 318 315 315 314 317 320 320 317 313 312 314 315 317 318 319 321 319 318 320 321 322 324 321 314 311 312 314 313 312 313 312 313 313 313 315 315 316 321 321 319 316 313 318 319 316 319 318 311 306 304 303 303 302 303 303 301 301 301 299 299 298 297
318 317 316 315 315 316 316 317 319 319 319 319 318 316 315 315 314 313 316 322 324 321 319 317 317 320 321 316 313 316 319 319 320 319 313 313 315 315 316 319 319 320 319 319 321 320 322 324 318 314 313 314 315 314 314 314 315 316 316 314 315 315 316 319 318 319 319 318 315 314 318 324 322 317 311 305 303 303 302 302 302 301 300 299 298 298 297 296
317 317 316 314 315 316 316 318 319 319 319 319 318 317 316 316 313 313 318 323 325 323 317 313 315 318 317 313 314 317 319 319 320 317 311 312 316 315 316 316 317 320 319 318 318 318 320 319 314 316 317 314 315 316 317 316 316 319 320 317 315 316 317 317 317 316 321 326 317 312 323 332 328 323 313 306 305 304 303 303 302 301 300 300 299 298 297 296
317 317 316 314 315 316 317 319 320 319 320 319 319 319 316 316 314 313 319 327 328 325 320 316 317 317 314 312 314 317 321 320 314 311 310 311 313 315 317 315 315 320 320 317 318 318 319 316 314 317 317 315 317 317 317 316 317 320 322 319 316 315 316 317 317 317 324 328 315 310 320 328 330 326 313 306 307 305 303 303 302 301 301 300 300 299 297 296
317 317 316 315 315 317 318 320 320 320 321 321 319 318 317 317 315 313 320 329 329 324 322 318 315 315 313 310 311 317 325 320 311 309 311 311 310 312 318 317 315 317 316 317 321 321 319 317 316 316 317 318 318 317 317 317 321 323 321 320 320 318 318 319 318 319 323 322 319 319 319 320 327 323 308 306 309 306 304 304 302 302 301 301 300 299 297 296
317 317 316 315 316 317 318 321 320 319 321 321 318 318 318 317 315 316 326 335 330 322 320 317 312 312 310 308 311 316 316 313 315 313 308 309 311 312 318 321 320 319 315 318 326 321 315 316 319 318 317 318 318 320 320 318 321 324 317 316 319 319 320 321 320 320 318 316 323 326 318 318 326 319 306 306 311 310 306 304 303 302 301 301 299 298 297 296
318 318 317 315 316 317 318 320 320 320 321 320 318 318 317 315 314 320 328 333 327 318 316 314 310 310 311 310 313 314 309 309 315 313 308 309 310 311 316 319 321 319 313 317 324 320 314 314 318 321 320 320 321 320 318 318 319 317 312 316 318 317 319 321 322 322 318 318 324 325 319 320 324 319 311 311 314 314 308 303 303 303 302 301 299 298 296 295
318 318 317 316 316 317 318 319 319 321 321 319 319 318 316 317 319 325 330 330 324 316 313 312 311 312 314 315 314 313 310 310 312 312 312 312 312 311 311 312 317 319 315 316 320 319 314 310 313 318 320 321 321 315 311 315 315 311 315 323 322 319 321 322 323 321 320 324 325 324 321 319 322 323 317 314 314 313 308 304 303 303 302 302 300 298 296 295
319 319 318 316 316 317 318 318 319 320 320 319 319 316 318 322 325 331 332 326 323 319 314 313 312 312 315 318 318 314 311 312 311 314 315 313 314 315 312 311 316 321 321 319 319 318 314 312 314 316 316 317 319 314 310 311 311 314 323 326 323 322 321 321 324 322 323 327 323 319 317 315 321 325 318 314 312 310 308 306 303 303 302 301 299 298 297 296
319 319 318 316 316 317 318 319 319 320 320 319 318 317 322 325 325 331 329 322 324 323 317 317 313 312 315 317 318 315 313 312 311 315 317 315 316 316 316 318 319 322 324 321 322 321 318 317 316 313 312 315 322 321 313 311 312 318 324 324 324 326 323 323 326 322 323 323 315 313 316 314 318 321 318 317 313 308 307 305 302 302 301 300 299 298 297 296
319 319 318 316 316 317 318 319 318 319 320 319 318 319 322 326 327 328 326 325 325 319 317 320 317 315 316 315 316 314 313 313 311 313 316 315 316 315 316 318 316 319 322 319 320 322 324 321 314 313 314 314 320 321 318 318 317 318 323 324 326 327 327 330 327 319 320 319 311 310 314 316 318 318 316 315 310 304 304 305 303 301 300 299 298 297 296 296
319 319 318 316 317 317 317 318 318 319 319 318 319 320 322 326 327 325 325 325 323 318 318 320 317 315 316 316 318 316 314 314 312 313 314 314 316 317 317 315 313 319 322 318 318 321 326 326 318 316 316 314 315 317 323 327 319 317 320 322 323 327 329 330 327 322 321 320 314 310 314 322 323 315 307 305 303 301 302 303 303 301 300 299 297 296 296 295
319 319 318 317 317 317 317 318 319 319 319 318 320 322 323 326 326 324 326 325 322 320 318 319 318 316 318 320 320 317 316 316 314 313 315 315 318 321 322 318 315 319 321 319 320 319 320 325 322 315 312 313 314 316 320 325 320 315 315 318 321 324 324 321 321 320 318 318 318 314 317 323 318 308 301 301 301 300 301 302 302 302 300 298 297 296 296 295
319 318 318 317 317 318 318 318 319 318 318 319 323 323 322 325 326 325 325 322 322 320 318 322 322 319 321 323 321 317 315 317 316 314 315 316 318 319 321 321 316 315 317 320 323 320 319 325 321 312 311 312 313 314 316 319 320 314 314 320 319 316 318 319 318 315 314 317 319 318 319 319 315 308 303 302 303 301 300 301 301 300 298 297 297 296 295 294
318 317 316 316 317 317 317 318 319 317 318 321 324 322 321 322 322 323 323 319 320 321 320 324 324 321 322 323 322 319 318 318 317 315 318 319 318 317 320 321 315 312 315 317 321 321 320 326 321 313 314 312 308 312 315 314 316 317 319 320 315 313 317 321 321 319 319 320 319 318 318 318 318 314 307 304 305 303 300 300 300 299 298 297 296 296 295 294
316 315 315 315 316 317 317 318 318 316 318 322 324 323 322 321 318 318 320 318 318 323 324 324 323 322 323 324 324 320 319 320 318 318 321 320 319 319 320 320 314 313 315 313 317 320 318 323 321 312 313 314 310 314 317 313 311 316 318 315 313 318 320 319 320 322 322 321 320 322 319 316 318 317 314 313 311 305 301 299 299 299 298 297 297 296 294 293
314 315 316 313 314 316 317 318 315 315 318 322 324 322 321 321 318 318 318 317 320 324 324 323 322 322 323 323 324 320 319 321 320 320 321 320 319 317 316 317 315 314 316 313 317 320 317 319 321 313 310 314 314 316 321 319 312 311 313 312 314 317 319 319 319 319 322 320 320 322 319 317 319 319 320 321 313 304 301 300 299 299 298 297 297 295 294 293
313 317 316 311 312 315 315 315 314 316 320 320 319 319 318 319 318 318 317 317 320 321 322 323 322 322 322 321 320 320 320 322 321 320 321 319 319 317 314 316 316 313 314 314 315 319 316 317 320 316 311 313 316 318 322 324 318 315 316 317 315 314 316 319 316 316 321 321 320 320 318 320 321 315 316 318 309 302 301 300 299 298 298 297 296 295 294 293
313 319 316 309 311 313 313 315 316 318 320 316 315 316 317 318 318 318 317 317 318 318 319 323 322 322 323 321 320 320 320 322 321 320 320 318 319 318 314 316 317 314 314 315 316 319 318 318 320 319 315 317 323 319 315 317 319 319 320 320 318 315 316 319 317 316 317 318 320 319 317 320 317 308 308 311 307 303 301 300 300 299 298 297 296 295 294 293
314 319 313 308 310 311 313 318 318 319 319 316 314 315 316 317 317 317 317 318 318 318 319 321 320 321 322 321 321 321 321 322 321 320 320 319 319 318 315 315 317 316 317 319 317 317 318 319 319 318 317 319 318 312 307 310 313 315 317 318 318 316 316 318 319 318 316 315 316 317 317 318 312 305 305 306 305 304 301 300 300 300 298 297 296 296 294 293
314 314 309 307 309 310 315 320 318 318 319 315 314 316 316 316 316 316 316 317 318 318 319 320 318 319 320 319 320 320 321 322 321 321 322 321 320 317 315 316 317 317 319 320 316 314 315 317 317 317 319 317 312 308 308 309 310 313 315 315 316 317 318 318 318 318 317 316 315 316 317 316 311 305 305 303 302 302 301 301 301 300 299 298 297 297 295 294
311 309 308 308 308 310 316 320 319 319 317 315 314 315 315 315 315 316 316 317 318 318 319 319 317 318 319 318 319 319 319 320 320 319 319 320 317 313 312 314 313 314 318 319 317 316 316 317 317 317 319 318 314 312 312 313 313 315 319 317 314 314 316 316 315 315 315 316 316 316 316 317 313 305 304 303 302 302 301 301 301 300 299 298 297 297 295 294
310 309 309 308 307 309 314 316 317 319 317 315 315 315 314 314 314 315 316 316 317 318 319 318 316 317 317 317 318 317 316 318 318 317 317 318 316 313 312 312 312 314 319 318 316 316 317 317 317 316 317 318 316 315 318 319 316 315 318 317 313 313 314 314 314 315 315 315 316 315 314 316 313 308 307 305 304 304 303 300 300 300 299 299 298 297 296 295
312 312 310 309 308 309 310 310 313 317 316 315 316 315 315 315 313 312 314 316 317 316 317 316 314 315 317 316 317 318 316 315 316 317 317 318 318 314 310 309 311 314 317 316 313 315 317 318 317 316 316 315 314 314 317 317 315 315 316 316 315 313 312 313 314 314 315 315 315 314 314 315 314 312 311 308 305 306 305 301 300 300 300 300 299 298 297 295
311 312 312 312 311 311 311 310 311 314 315 315 316 315 315 315 314 313 313 315 315 315 315 314 312 315 317 316 316 317 317 315 315 315 316 316 317 314 308 307 310 311 313 313 311 314 317 316 315 315 314 314 314 314 313 312 313 314 314 314 314 313 312 312 313 314 314 314 314 315 314 313 314 313 312 310 308 306 304 301 300 300 301 301 299 299 298 296
308 310 309 309 311 312 312 311 311 312 314 315 315 315 316 315 315 315 313 312 312 314 315 314 313 314 316 316 316 316 316 317 316 315 315 315 316 314 310 308 308 308 310 310 308 311 316 315 314 314 313 313 313 312 311 311 311 312 312 313 313 312 312 311 311 312 312 312 313 314 312 312 312 311 311 313 312 309 306 303 300 300 301 301 300 300 299 297
304 306 303 303 306 308 308 311 311 311 312 314 314 314 315 315 315 314 313 312 311 312 315 315 314 313 314 315 316 316 315 316 315 314 314 315 314 314 314 312 308 304 307 309 307 308 312 313 313 312 312 312 312 310 309 308 309 310 310 311 311 311 310 309 309 309 308 308 310 311 310 310 309 309 311 312 309 306 304 302 301 302 301 301 300 299 299 297
303 304 303 303 303 303 305 309 311 311 312 312 313 314 313 313 313 312 312 313 313 312 313 314 313 313 314 314 315 315 315 315 314 314 314 314 313 313 314 315 311 305 305 308 308 307 309 311 311 310 311 311 310 309 308 308 309 309 309 309 309 309 307 307 308 308 307 307 308 307 308 307 306 307 308 307 304 302 303 303 303 302 301 300 300 299 298 296
297 298 300 304 305 303 304 307 309 310 311 311 313 313 312 312 312 311 312 312 312 312 313 313 313 313 313 313 314 314 313 312 313 314 313 313 312 312 312 312 311 309 307 306 308 308 307 307 308 308 310 311 310 309 308 306 306 306 307 308 308 307 306 306 306 307 307 308 307 306 307 307 306 305 304 302 302 304 305 305 304 302 300 300 301 301 298 296
295 294 297 303 305 304 304 305 307 309 309 310 311 311 311 311 310 311 312 310 310 311 312 312 312 312 312 312 312 312 311 310 311 310 309 310 311 310 310 310 309 310 310 306 306 308 307 307 308 309 309 310 307 305 304 303 305 307 307 307 307 307 306 304 303 304 305 306 306 307 307 306 305 303 302 301 303 304 304 304 303 303 301 299 299 298 297 296
Wind_Speed
2 1 1 1 1 2 2 2 2 2 3 3 3 4 5 5 5 5 5 6 7 8 9 10 11 12 13 14 15 16 18 18 18 15 10 10 8 5 4 3 2 1 2 2 3 4 2 3 3 4 4 3 4 3 3 3 3 4 4 3 0 3 3 5 6 6 3 3 6 4 3 1 6 6 4 3 2 4 4 3 5 6 5 5 6 11 13 14
2 2 1 1 1 1 2 2 2 2 2 2 3 3 5 5 5 6 6 6 7 8 9 10 11 12 13 14 14 16 17 18 16 12 6 6 3 3 5 4 2 1 2 2 4 4 3 0 1 5 5 3 3 3 2 2 3 4 3 2 2 5 5 5 7 5 3 2 6 5 2 2 4 4 4 4 6 7 7 6 2 5 8 7 8 10 13 13
1 2 1 0 1 1 1 2 2 2 2 2 3 3 4 5 6 7 6 7 7 8 9 10 10 11 12 13 13 14 15 14 10 5 4 4 4 6 6 4 2 3 3 2 4 3 3 4 4 5 4 3 2 3 2 2 1 2 4 1 5 6 4 4 5 6 5 2 5 6 1 1 5 4 2 4 7 6 6 6 3 5 8 8 9 11 15 13
2 1 1 0 0 1 1 2 2 2 1 2 3 4 4 5 6 6 7 7 8 8 9 10 10 11 11 12 11 12 12 8 3 1 3 3 5 6 5 4 3 3 3 2 4 3 5 6 6 5 3 2 3 3 1 2 1 2 3 3 5 3 2 5 6 6 6 2 3 4 4 6 5 2 1 1 5 8 5 4 4 6 8 8 8 11 15 16
2 2 2 2 1 1 1 2 2 1 1 2 3 4 4 5 6 6 7 7 8 9 9 10 10 10 10 11 9 9 8 5 1 1 2 1 4 5 3 3 3 3 3 3 5 5 5 5 6 6 4 2 3 3 1 2 2 2 3 5 5 4 2 5 5 5 3 2 2 4 6 7 3 1 3 3 5 7 1 2 6 5 5 3 5 8 12 15
3 3 2 2 2 2 1 1 1 1 2 2 3 4 5 5 6 6 7 8 8 9 9 10 10 10 9 9 7 5 4 1 3 2 1 1 3 3 3 2 2 2 3 4 6 5 4 5 6 3 3 2 0 0 2 2 2 1 3 2 3 4 3 4 1 3 1 2 3 3 4 3 5 7 4 5 8 5 2 1 3 4 5 7 9 9 10 11
2 3 3 3 2 2 2 1 1 1 1 2 2 4 5 6 6 7 7 8 8 8 9 9 10 10 8 7 5 4 3 3 5 3 4 2 2 3 2 1 1 3 5 4 5 5 4 5 3 3 3 2 2 2 2 2 3 2 3 4 3 4 5 5 2 3 1 2 6 2 3 4 6 7 3 4 4 2 4 5 8 10 11 12 12 10 9 9
3 3 3 3 3 3 2 2 1 1 1 1 2 3 4 6 6 7 7 8 8 8 9 9 10 9 8 5 3 4 2 5 4 3 4 3 4 4 2 2 2 4 5 4 4 5 4 4 4 4 2 1 4 2 1 1 3 3 5 4 2 2 6 6 4 6 5 6 5 2 5 7 8 3 5 8 3 5 5 8 8 9 13 13 11 10 9 9
5 5 4 3 3 3 2 2 1 1 2 2 3 3 4 6 6 7 7 8 8 8 9 9 9 8 6 4 5 3 3 4 2 3 4 4 5 5 5 4 3 4 4 4 4 6 4 3 4 4 3 2 4 3 1 1 2 5 5 3 3 4 6 5 5 6 5 4 2 2 9 8 5 2 4 5 4 5 6 10 8 9 12 10 9 9 9 9
5 6 5 5 4 3 3 3 1 1 2 2 3 4 4 6 6 7 7 8 8 9 9 8 8 7 4 2 5 1 4 1 2 3 3 3 4 5 6 5 4 4 4 4 5 7 4 5 5 4 4 2 4 3 2 4 2 3 3 3 4 6 7 3 5 7 3 4 4 5 11 6 3 2 2 3 2 3 8 10 8 10 10 8 7 7 9 10
5 6 7 7 6 5 4 3 2 2 2 2 3 4 5 6 7 7 7 8 9 9 9 7 7 5 1 3 4 4 4 2 3 3 3 4 4 5 6 5 5 4 5 5 6 7 4 6 7 6 2 2 3 1 1 4 2 2 0 4 6 6 7 4 6 8 2 3 5 7 7 4 2 2 3 2 3 3 10 9 8 9 7 7 7 7 9 10
7 7 8 8 7 6 5 4 2 2 3 3 3 4 5 6 7 7 8 8 9 9 8 6 5 3 1 2 4 9 8 5 6 6 7 6 5 5 5 4 4 3 5 4 5 8 5 6 9 5 2 3 2 0 2 3 2 2 3 4 8 7 7 6 4 4 1 2 4 6 4 5 3 4 0 2 2 7 10 8 7 8 6 6 6 6 7 10
10 9 8 8 8 7 6 5 3 3 3 3 4 5 6 7 8 8 9 9 8 8 6 5 4 2 2 1 5 9 12 11 11 11 9 7 4 4 3 3 3 3 3 2 3 5 5 7 9 5 3 5 1 2 2 3 2 1 3 2 6 7 7 6 1 2 0 2 3 3 3 7 7 4 4 3 4 8 9 7 6 6 6 6 6 6 6 10
11 10 9 8 8 6 5 4 3 3 3 4 5 6 7 8 9 9 9 9 7 6 5 3 1 2 3 3 5 6 10 11 11 10 7 6 5 4 3 3 3 3 1 2 3 3 4 7 7 4 1 2 1 1 3 5 3 2 2 2 3 2 5 7 1 0 2 1 2 3 2 7 9 2 4 4 3 8 7 6 5 5 5 5 5 6 6 9
11 11 10 9 8 6 5 5 3 2 3 5 6 7 8 9 9 10 9 8 5 3 2 1 2 3 2 5 6 5 8 8 8 9 7 6 6 4 3 3 4 4 4 4 5 5 5 7 6 4 1 1 3 2 2 5 4 2 2 3 3 2 5 10 5 4 3 2 3 4 2 6 9 2 4 7 4 8 8 5 5 6 6 5 5 6 5 7
11 11 11 9 8 6 5 5 3 2 4 6 7 8 8 9 9 9 7 4 2 1 1 1 3 3 1 4 2 3 5 5 5 7 7 7 6 4 4 5 5 5 6 5 6 5 6 5 3 2 1 1 3 4 3 4 4 3 0 4 4 2 3 7 4 2 3 0 3 1 2 4 7 3 4 8 5 9 8 5 6 5 6 6 5 5 5 6
12 13 11 9 7 6 6 4 2 2 5 6 7 7 8 8 7 5 3 2 2 1 2 1 3 2 2 3 1 3 3 4 4 4 7 7 6 6 7 6 4 6 6 5 4 3 4 4 1 0 2 2 3 4 3 3 4 3 1 3 4 3 2 3 4 3 2 2 1 1 2 5 9 5 4 10 6 8 8 5 6 5 5 5 4 5 5 6
14 14 12 10 7 6 6 5 2 3 6 6 6 7 7 5 3 1 2 4 3 2 1 0 2 1 3 2 2 3 1 3 4 5 7 6 6 7 6 5 5 6 6 4 2 2 2 3 2 1 3 2 2 5 2 5 5 4 3 2 3 3 3 4 5 3 4 3 1 1 4 8 11 10 6 10 6 8 8 5 5 5 5 5 5 5 5 6
15 15 13 11 7 6 6 4 1 5 6 5 5 5 4 2 1 0 3 4 3 1 1 3 4 2 3 3 2 1 3 3 4 5 6 6 7 7 6 5 6 6 4 1 1 1 1 3 3 1 1 3 5 6 9 9 7 6 5 4 4 4 4 5 6 4 2 4 4 5 7 8 10 10 6 8 6 8 7 5 5 4 4 4 5 5 5 6
16 16 13 11 8 7 5 3 2 5 5 5 4 2 1 1 2 2 1 2 5 5 2 5 6 2 3 2 1 3 3 2 2 3 6 8 9 8 5 4 5 4 2 3 2 0 3 3 2 4 7 7 8 9 10 5 1 3 3 4 5 4 5 5 6 5 0 1 6 7 6 7 8 6 6 5 4 6 5 5 5 4 4 4 4 4 5 5
17 16 14 11 9 8 5 3 3 4 4 5 2 0 1 2 1 2 2 3 8 9 6 6 6 5 6 2 4 5 3 0 1 2 7 8 8 7 1 2 4 1 1 3 2 2 2 4 6 9 9 6 5 7 6 4 3 3 4 5 4 4 6 6 5 5 1 2 6 5 5 8 6 3 5 4 4 4 2 4 4 4 4 3 4 4 4 4
16 16 13 11 10 8 6 5 4 4 5 4 2 2 2 2 2 1 1 3 7 8 8 7 4 7 8 4 4 4 3 1 2 1 8 7 4 4 1 4 5 3 1 2 2 2 1 3 9 11 5 1 0 2 3 5 6 5 3 2 5 4 3 6 5 4 2 3 4 4 4 8 5 2 3 4 3 2 2 3 3 4 4 3 4 4 4 4
17 15 13 12 10 8 7 6 5 5 5 4 3 3 2 1 3 2 3 1 6 3 5 5 4 6 6 4 6 6 2 4 3 4 9 9 2 3 4 4 5 3 2 3 4 3 2 5 10 8 3 2 4 1 4 3 3 4 3 2 6 3 0 4 5 4 1 2 3 2 3 6 4 1 3 4 3 3 4 4 4 3 3 3 3 3 4 4
17 16 14 12 11 10 7 5 6 6 6 6 5 4 3 2 3 3 1 0 4 4 4 5 4 5 5 3 6 8 4 4 3 4 10 11 4 3 4 4 5 3 3 6 7 6 6 7 4 3 5 6 6 3 4 5 3 2 5 6 6 4 5 7 4 4 3 2 1 1 4 5 4 3 1 3 3 4 4 4 5 4 3 3 4 4 5 4
17 17 14 12 12 9 6 4 7 7 6 5 5 5 4 3 3 3 1 1 3 5 3 4 3 3 4 3 5 8 3 2 3 3 7 10 6 4 2 2 3 4 6 5 4 5 7 6 2 3 2 5 5 5 5 6 3 3 5 10 10 7 8 7 3 5 4 4 3 2 3 4 4 3 2 2 3 3 3 4 4 3 3 4 4 4 4 4
18 17 14 13 13 10 5 4 6 8 6 4 5 6 6 5 4 3 3 3 4 4 1 2 2 4 5 3 2 5 3 2 3 1 4 6 5 4 2 1 1 3 6 4 2 3 4 3 2 3 4 5 5 6 4 6 4 3 5 8 10 8 7 5 1 2 0 3 2 2 2 4 6 3 1 3 3 2 1 2 1 2 3 3 3 3 3 4
18 17 15 14 14 13 6 2 6 9 4 4 7 9 7 5 4 2 2 3 5 2 3 1 0 3 5 2 1 5 3 3 1 3 2 3 1 3 3 3 1 1 3 3 0 2 2 2 4 3 4 5 5 5 5 7 6 3 4 4 6 7 6 4 4 4 3 2 4 3 3 3 6 3 1 3 4 1 2 2 2 0 2 2 3 3 3 3
20 17 15 15 17 16 8 3 8 9 2 3 9 11 7 6 5 1 3 2 4 2 4 1 1 2 2 1 3 4 2 1 3 0 2 3 1 3 2 5 6 4 2 5 3 4 2 1 2 5 4 4 5 5 7 9 5 5 3 5 5 5 5 4 5 3 2 1 4 4 1 2 6 3 2 2 3 5 6 5 4 3 2 1 2 2 3 3
21 18 16 17 18 18 13 7 7 7 4 5 10 11 8 7 4 4 3 4 2 3 2 1 2 1 1 2 3 3 1 1 2 2 2 3 1 3 2 5 6 5 1 3 5 4 0 2 5 7 4 5 5 2 6 8 4 4 5 6 5 5 4 4 4 3 1 1 4 6 4 3 5 3 1 1 3 6 5 5 4 4 4 3 2 2 2 3
23 19 18 18 18 18 16 13 11 9 6 8 11 11 9 5 3 3 4 5 1 1 1 2 2 0 4 5 1 2 1 1 1 1 2 1 2 5 2 2 6 5 1 3 2 3 2 1 2 4 3 5 4 2 2 4 3 4 5 5 5 5 4 3 2 3 1 3 6 8 7 5 4 4 3 4 4 5 7 6 6 6 6 5 4 3 3 3
25 21 20 22 22 21 15 11 17 15 8 10 13 11 7 3 3 4 7 2 2 1 2 1 0 2 5 5 2 1 2 1 1 2 2 1 2 4 2 2 4 4 2 3 3 4 3 1 2 2 3 4 5 4 3 2 3 5 3 4 3 3 4 4 4 3 1 5 5 4 1 3 5 5 4 5 4 6 8 10 12 11 9 7 5 4 4 3
27 23 23 25 25 25 16 8 17 20 11 11 13 8 4 1 1 5 4 1 1 2 3 2 0 3 4 2 1 2 3 1 0 2 3 2 3 3 2 3 4 2 2 3 2 4 3 4 3 1 2 4 6 4 3 4 4 4 4 5 3 3 3 3 3 1 3 5 3 2 2 2 6 6 5 6 5 5 6 8 13 15 12 9 7 5 4 3
29 24 24 27 25 24 21 10 11 19 19 15 10 3 3 3 5 5 3 1 1 1 3 3 2 4 5 2 1 2 2 1 2 2 1 2 2 3 3 2 5 3 1 3 2 1 3 4 1 2 2 2 7 4 1 0 1 4 4 4 3 2 2 2 3 2 4 4 2 2 1 2 4 4 3 5 4 4 5 5 9 12 11 10 7 6 5 4
29 26 25 26 25 23 23 16 10 17 22 17 7 2 4 5 3 4 5 4 1 1 2 3 4 5 5 3 3 3 2 1 3 3 2 3 2 3 3 3 3 4 3 3 2 2 1 4 2 4 2 2 6 5 4 5 3 4 4 4 4 4 3 3 4 3 4 4 3 2 1 2 3 2 3 4 5 4 3 3 5 7 6 7 6 5 5 5
28 29 26 24 26 25 24 21 15 18 21 13 4 4 6 6 1 2 5 4 1 1 2 3 5 5 2 1 2 2 3 1 3 4 2 2 3 3 3 4 5 4 3 3 2 1 2 4 5 2 1 3 4 2 4 6 2 2 3 4 2 4 4 2 2 4 2 2 3 2 3 4 3 1 2 2 2 4 2 5 8 7 6 6 5 5 6 5
28 28 25 23 27 28 26 23 20 21 19 8 3 5 6 4 3 3 3 3 3 5 4 2 3 4 2 1 1 2 2 1 3 3 1 2 4 4 4 4 6 8 5 4 3 1 2 4 5 2 1 2 2 1 2 3 2 1 2 3 3 3 4 1 1 2 3 2 4 1 2 5 1 1 3 3 3 3 3 5 8 8 7 7 6 6 6 6
27 23 19 19 24 27 27 24 22 24 15 4 6 7 3 2 3 2 1 1 1 4 7 3 1 3 3 1 1 2 2 2 3 3 2 3 3 4 4 3 4 10 9 3 2 2 3 3 5 1 1 1 1 2 3 3 3 4 2 4 3 1 3 2 1 2 2 3 4 0 3 5 2 2 3 3 1 1 2 5 7 7 7 8 8 8 7 7
25 17 10 13 22 24 24 25 24 19 7 3 9 8 2 1 1 1 1 0 1 3 4 4 2 2 3 2 2 2 3 3 3 3 2 2 2 3 4 2 2 5 6 2 1 2 3 1 5 1 2 2 3 3 2 4 3 4 3 2 2 2 1 2 1 1 2 4 4 2 4 4 4 4 1 3 7 7 6 6 8 10 12 11 10 10 9 7
20 10 3 9 18 19 21 25 20 10 3 4 9 7 1 1 2 2 2 1 1 3 3 2 0 2 2 3 2 2 2 3 4 3 2 1 2 2 2 2 2 1 3 3 4 2 3 1 4 2 0 1 3 3 2 2 2 3 1 1 2 2 2 2 2 2 3 5 5 5 5 4 5 5 6 9 10 10 10 9 11 14 15 13 12 11 9 8
11 4 1 7 15 16 19 20 11 4 3 3 4 3 1 0 3 3 3 2 1 2 1 1 1 2 2 2 2 2 1 2 4 3 2 2 2 2 1 1 3 1 2 3 4 1 2 2 3 3 3 0 1 2 5 6 3 2 1 1 1 1 1 1 1 2 2 2 3 4 7 7 4 3 6 7 7 10 14 13 13 14 14 14 12 10 9 8
3 2 1 6 14 18 18 13 5 3 3 1 2 3 1 0 1 2 4 2 2 2 2 3 3 3 3 2 2 2 2 2 3 2 2 2 1 1 1 1 3 3 2 4 2 2 1 2 2 2 1 2 5 5 4 6 5 5 5 5 4 4 2 3 4 1 2 2 3 4 8 8 4 2 4 4 4 9 12 12 11 12 13 12 9 8 8 8
1 2 1 6 16 19 14 5 3 3 3 2 3 2 2 2 1 1 2 3 3 1 2 2 2 2 3 3 2 3 3 2 2 2 2 3 3 3 1 1 1 2 3 2 1 2 2 3 2 4 4 5 6 2 1 3 3 4 3 3 3 4 4 4 6 3 1 2 1 1 6 7 2 2 4 4 5 7 8 9 7 8 9 9 7 7 8 8
0 1 1 6 13 13 7 3 4 4 3 3 3 2 2 2 1 0 0 1 1 1 1 1 2 2 2 2 3 3 3 2 3 4 2 3 4 3 1 2 1 3 2 0 1 1 2 2 1 4 4 2 2 2 3 3 4 2 3 2 3 3 4 5 5 2 2 4 2 1 6 6 1 1 3 3 4 4 6 8 7 6 6 7 7 8 8 8
2 1 1 2 6 5 3 3 4 4 3 3 3 2 2 2 3 3 2 2 1 2 2 1 2 2 2 2 3 3 2 2 2 3 3 3 3 1 0 2 3 2 2 3 2 1 0 1 1 2 4 4 4 2 2 4 1 2 3 1 2 4 3 1 0 1 3 8 7 5 8 7 1 1 2 2 1 2 4 6 7 7 7 8 9 8 7 7
2 2 1 1 1 1 1 1 2 3 4 4 4 4 2 0 3 4 5 4 3 3 3 1 1 2 2 2 2 2 3 2 2 2 2 3 3 1 2 2 2 3 3 3 5 4 2 2 2 1 5 7 7 5 2 1 1 1 2 2 3 7 7 3 2 3 7 9 8 8 9 5 2 3 3 3 2 3 4 6 7 8 8 9 9 8 7 7
1 1 0 1 3 2 0 0 2 2 4 4 3 4 6 5 2 2 5 5 5 4 3 1 2 3 2 3 3 3 5 4 3 3 2 3 3 2 1 3 2 0 1 2 5 4 2 2 5 7 9 10 10 9 4 3 2 2 4 5 6 9 9 7 6 7 7 5 7 10 6 2 3 3 1 2 2 4 5 6 6 6 7 7 8 7 7 7
1 1 1 1 1 0 1 1 1 1 2 5 4 4 8 9 4 1 4 5 4 3 2 1 3 3 3 5 4 4 5 5 5 5 4 3 2 3 1 1 2 1 1 1 1 3 3 3 7 10 13 14 14 11 2 4 4 7 7 8 9 9 8 9 11 8 4 4 10 10 3 3 6 6 3 5 5 5 6 7 7 6 7 7 7 8 8 7
1 1 1 1 1 2 2 2 3 2 2 4 3 3 6 9 8 5 3 2 0 3 3 2 5 9 9 7 6 4 4 5 6 6 4 3 2 2 1 0 1 1 2 1 2 2 4 6 9 9 11 13 12 8 4 4 5 6 7 10 11 11 11 14 14 10 7 8 12 6 5 5 7 5 4 7 7 7 7 8 7 6 6 6 7 7 8 8
1 0 1 2 1 1 1 1 5 6 6 4 3 4 6 9 10 5 2 2 1 4 6 6 8 11 10 8 6 5 6 7 6 5 4 4 4 3 2 2 2 1 2 2 1 1 3 5 6 5 7 12 10 6 5 5 5 7 9 12 13 14 12 11 11 9 8 9 10 5 5 8 8 5 6 6 6 5 4 3 5 6 6 5 6 7 8 9
2 1 0 2 1 0 2 1 4 5 6 5 5 7 7 9 9 4 2 5 5 4 6 11 10 7 8 8 8 10 12 9 6 5 5 5 4 3 3 3 2 1 1 2 0 2 3 2 1 2 4 9 8 4 5 6 8 9 12 16 17 13 6 5 7 7 5 8 9 7 7 9 5 4 5 3 2 3 3 4 6 7 6 5 5 7 8 7
4 2 3 2 1 2 1 1 3 4 4 5 7 8 7 9 10 6 3 6 9 6 7 12 11 4 5 7 11 14 12 7 6 7 7 7 5 4 3 4 5 4 3 3 1 1 3 2 1 2 4 8 5 5 7 7 5 7 14 19 18 11 6 6 6 6 7 8 8 7 7 7 3 4 3 2 1 4 7 7 6 5 5 6 7 8 7 7
5 4 3 3 0 2 3 2 3 4 5 6 8 8 7 8 8 8 5 4 5 6 6 10 10 5 4 8 11 12 6 4 5 5 4 4 3 3 3 4 5 5 5 4 2 2 4 3 1 2 5 6 3 4 5 4 2 6 12 15 14 13 11 7 3 5 9 8 6 6 7 4 2 5 3 3 5 7 8 7 6 6 6 6 7 7 7 8
Wind_Direction
162 145 140 127 101 92 90 79 76 58 50 46 32 27 19 16 12 3 2 3 352 347 347 340 340 339 338 338 339 338 336 332 325 322 316 310 307 261 234 215 195 288 265 223 184 169 90 45 25 29 47 41 11 343 355 10 60 53 77 96 293 202 200 190 184 195 179 282 278 329 32 129 298 310 322 324 4 326 323 309 270 275 274 264 292 315 321 324
172 162 164 114 100 83 73 71 72 57 43 39 24 19 16 15 14 3 359 1 350 345 344 338 338 337 337 339 339 339 334 328 322 323 328 333 340 161 163 175 187 203 203 201 192 165 124 128 35 51 50 40 344 346 1 4 60 82 111 107 238 203 211 199 179 200 198 297 288 305 331 199 256 286 354 318 303 345 333 297 286 284 297 318 313 318 327 331
210 172 181 108 90 61 46 48 60 53 31 25 10 11 9 6 9 1 356 356 347 344 341 336 337 336 338 338 341 341 333 330 328 339 15 42 95 132 145 161 149 146 180 182 181 157 129 163 109 67 48 52 349 352 30 16 26 138 121 106 246 213 237 234 191 211 222 298 308 301 321 234 252 249 355 299 296 322 295 286 317 292 299 310 305 331 347 352
266 210 204 237 90 13 14 23 37 37 10 6 0 1 357 356 3 356 352 352 345 344 339 338 338 338 339 338 344 339 336 351 335 329 35 78 116 131 140 147 124 143 188 155 155 127 99 120 86 61 64 45 337 360 36 325 358 135 140 186 226 192 252 243 199 222 235 215 263 295 338 306 274 204 204 305 312 301 273 262 245 251 280 297 314 351 11 21
282 256 236 254 260 303 341 2 14 7 332 348 356 352 351 350 352 348 349 348 343 343 341 339 338 339 339 340 347 340 355 32 287 295 43 129 143 142 132 127 121 154 187 139 143 126 93 91 66 53 60 28 338 24 349 296 81 140 214 196 189 155 244 254 193 213 221 152 253 316 321 296 303 240 209 194 265 281 319 198 215 236 279 324 4 11 23 30
271 266 251 261 270 283 306 344 349 328 318 342 351 346 345 343 343 343 344 344 342 342 340 340 339 339 339 340 346 354 37 30 273 303 328 232 179 166 133 124 129 170 183 144 137 124 82 60 56 64 56 34 350 160 249 311 58 207 273 255 215 174 225 270 194 213 163 57 285 281 292 308 337 305 243 210 238 257 17 99 129 60 51 69 54 36 32 30
263 266 261 263 263 267 281 283 280 292 317 337 343 340 338 338 339 338 340 341 340 340 340 341 339 336 341 347 348 25 70 263 288 307 290 279 226 207 157 192 181 200 194 156 132 121 93 76 83 130 90 33 202 209 238 344 50 155 264 298 273 186 215 262 310 289 263 252 256 258 321 309 291 296 308 273 260 336 14 54 77 70 62 62 55 41 36 31
288 280 268 262 254 248 241 235 257 285 314 327 334 334 334 335 332 333 339 338 337 338 338 340 340 340 346 360 25 21 358 256 285 304 284 284 260 245 229 260 247 226 206 189 162 140 119 116 156 152 105 256 182 169 184 43 39 181 228 276 281 211 240 269 296 288 273 252 253 291 294 261 244 268 315 297 20 55 43 60 60 64 56 49 48 39 33 30
308 306 289 272 258 246 232 219 231 287 311 313 314 323 327 328 327 331 334 333 335 332 335 340 339 342 341 17 75 16 283 235 290 309 297 289 271 262 258 261 252 238 198 201 184 156 165 173 189 182 171 194 162 169 165 144 277 210 203 251 287 297 289 302 297 271 268 257 202 275 282 266 253 273 299 305 73 88 66 59 41 54 53 42 43 35 32 30
313 310 304 299 282 262 245 220 232 298 303 296 307 317 318 321 323 328 332 331 330 327 332 337 336 343 340 57 87 307 259 231 314 311 321 303 283 272 256 249 245 239 187 175 174 160 171 194 183 151 145 138 151 167 142 160 207 187 181 251 261 296 301 318 301 280 285 272 197 223 276 282 313 302 260 329 37 109 74 55 38 57 54 41 41 32 34 33
303 299 298 298 284 259 241 227 249 292 291 291 304 308 311 317 321 326 329 326 325 326 329 332 335 335 358 105 135 229 253 280 299 317 331 321 306 275 252 246 240 227 191 165 183 186 179 180 152 115 142 171 149 143 224 196 147 123 100 298 284 313 302 256 277 283 285 275 199 185 262 300 1 272 193 326 339 75 82 63 43 58 52 42 40 33 35 32
295 300 296 286 273 254 234 230 259 295 292 295 296 301 309 312 317 321 323 323 323 325 324 330 327 296 74 76 205 236 254 261 271 292 301 304 294 259 238 234 220 207 202 175 194 203 198 179 145 126 203 156 133 234 232 210 106 101 56 333 301 340 322 265 271 293 179 225 181 158 283 311 250 224 306 27 84 84 78 68 48 54 47 41 37 36 38 29
293 301 297 281 270 255 234 225 254 293 288 290 293 299 304 307 313 315 316 320 319 322 325 327 310 235 121 319 240 244 254 257 268 278 282 279 261 230 202 191 179 183 216 199 184 189 199 197 163 152 157 122 169 218 109 57 59 293 39 25 308 347 325 283 350 25 358 197 160 152 285 290 260 250 340 356 120 90 68 60 47 48 41 39 34 36 38 29
286 295 294 284 272 259 245 234 240 275 283 290 294 296 302 307 307 307 313 316 316 320 323 329 281 150 128 253 259 262 260 259 265 264 258 240 208 176 155 144 156 162 173 158 141 129 166 181 149 122 98 100 184 152 45 10 12 312 331 23 345 333 283 290 290 55 314 300 121 135 210 267 274 297 12 341 91 93 80 64 45 48 39 34 34 34 37 31
277 288 293 287 270 255 251 245 237 258 280 284 289 297 303 305 304 307 311 308 310 309 320 7 165 132 74 279 268 263 259 258 253 245 234 214 191 172 161 146 135 123 117 127 120 99 122 144 124 105 276 351 58 76 358 349 10 20 315 305 338 198 269 307 291 192 216 303 74 126 188 269 275 257 37 353 47 93 91 71 49 50 42 37 35 33 33 25
277 285 292 285 264 252 251 249 242 261 282 283 290 301 304 305 304 305 301 291 279 251 34 57 162 132 4 277 255 236 243 239 233 231 219 205 202 201 168 143 121 115 119 114 112 100 91 93 86 109 156 34 73 82 36 359 335 351 259 252 269 221 279 317 309 217 196 257 40 96 198 273 278 213 69 17 44 94 91 78 60 52 45 43 36 33 35 24
274 280 289 282 262 252 248 244 238 273 287 285 294 304 305 305 302 299 283 224 176 161 95 119 151 118 278 237 211 266 245 209 204 202 198 197 200 186 155 129 104 111 109 96 110 102 49 49 43 286 51 52 98 97 56 323 284 308 348 233 253 227 231 299 307 325 56 104 56 27 212 248 276 268 45 24 37 89 87 80 66 58 52 47 42 41 36 30
267 274 281 278 264 248 240 228 234 291 289 291 305 308 305 305 297 278 196 172 128 90 39 350 132 102 274 217 220 259 156 161 174 161 175 176 170 166 146 124 114 105 85 52 64 75 15 29 66 34 26 33 127 117 160 233 223 229 229 221 257 245 228 263 277 304 29 22 340 350 263 256 276 286 10 21 29 81 83 84 75 65 60 51 46 47 38 37
261 266 272 274 262 246 237 211 251 295 288 297 313 311 310 325 332 165 164 155 135 135 232 220 167 149 246 241 253 221 113 123 143 148 157 149 151 144 117 104 104 99 93 70 359 78 90 57 69 126 225 214 183 171 200 219 211 212 220 211 228 248 248 238 249 264 7 354 306 259 260 262 270 286 356 12 23 76 84 82 76 67 65 59 52 48 40 44
255 257 262 265 255 244 229 195 281 291 293 305 324 342 326 359 360 326 212 177 211 214 194 199 195 219 273 264 195 155 138 122 136 151 151 149 147 130 94 63 65 67 105 156 188 68 112 138 177 207 217 210 199 204 217 236 227 195 225 240 230 238 265 256 258 280 343 346 277 250 254 263 262 294 350 354 27 69 77 84 83 77 72 64 64 57 48 52
250 253 256 254 246 237 214 203 264 279 298 308 319 55 193 181 143 294 284 261 244 236 241 227 207 250 265 229 155 149 129 58 54 122 154 157 146 142 136 44 86 73 263 163 152 46 102 173 223 231 225 213 201 213 234 273 282 242 237 259 266 237 257 263 259 294 328 184 265 274 280 273 263 321 347 353 53 55 72 108 111 103 93 77 75 65 52 53
246 247 250 245 239 229 207 214 247 275 298 298 270 207 204 186 175 191 126 288 273 242 234 242 238 259 257 228 185 142 82 311 298 186 167 151 128 181 209 75 137 198 275 124 120 20 28 216 240 243 230 78 18 175 195 234 240 245 236 263 274 247 277 288 280 319 16 180 265 309 290 274 277 31 2 9 66 51 40 96 107 114 113 92 80 68 55 51
243 242 240 236 232 219 208 222 241 265 275 258 236 211 199 157 154 132 101 275 291 267 215 224 223 238 244 244 208 170 172 226 240 251 181 151 118 189 139 113 161 158 113 177 185 188 230 242 243 237 177 179 259 163 140 210 237 223 197 218 256 242 344 283 285 335 18 194 262 295 280 274 273 97 50 27 64 76 52 67 67 72 100 98 85 67 56 53
240 240 235 227 224 211 203 229 248 254 248 232 233 217 189 155 148 137 85 290 285 282 234 213 203 211 221 231 187 175 203 209 198 238 181 156 133 151 153 156 152 149 202 201 193 205 241 248 229 146 147 190 232 225 174 214 260 237 202 212 241 235 214 229 281 335 336 346 344 308 304 291 259 232 146 44 49 66 50 68 70 49 64 85 78 62 52 52
237 237 232 220 215 200 193 243 248 231 215 208 223 212 184 173 155 141 73 14 288 291 278 218 193 202 189 137 158 171 169 210 221 229 180 164 148 137 181 169 141 201 211 180 185 232 260 255 145 124 164 164 198 233 209 196 236 291 228 215 224 227 227 239 322 4 353 340 351 7 305 293 297 278 187 107 57 56 34 56 79 54 49 61 61 54 44 49
235 236 229 218 205 184 185 251 224 196 190 205 207 189 176 167 161 159 83 28 278 269 260 202 170 173 167 120 152 152 119 265 263 121 154 169 155 124 144 167 81 213 191 150 167 226 260 294 94 169 191 152 188 245 221 159 150 275 247 213 215 217 230 253 232 94 220 262 313 45 182 264 304 324 126 122 97 81 49 66 93 53 48 53 51 44 37 40
232 233 228 217 194 180 191 221 178 167 168 217 191 177 180 172 175 196 66 2 277 201 131 229 79 144 168 162 154 140 162 259 29 62 101 141 154 83 128 188 128 191 178 128 270 241 206 24 52 126 152 161 202 245 213 152 135 238 252 165 176 196 210 216 172 176 228 251 326 8 137 251 283 290 307 128 123 191 225 196 212 107 54 52 48 43 46 39
229 227 222 210 191 188 195 167 167 174 175 178 173 174 174 173 179 95 76 264 278 98 108 252 100 105 144 106 82 112 189 275 95 293 351 85 134 59 118 205 171 174 164 136 220 264 143 129 159 145 132 187 215 225 191 159 154 241 218 120 134 162 168 146 136 177 265 13 309 298 149 249 268 272 318 120 159 231 216 198 208 206 208 165 88 61 60 51
229 224 216 205 192 195 204 195 180 191 209 165 162 172 164 165 164 71 82 231 258 79 82 109 127 54 53 108 62 69 80 27 114 247 354 82 85 66 146 201 147 142 100 123 214 256 90 216 187 144 142 207 216 233 184 167 190 214 130 96 76 76 88 90 115 136 48 35 246 239 188 217 276 281 235 176 239 237 196 181 206 211 222 209 161 142 102 78
226 220 212 200 194 202 211 218 207 183 177 171 162 164 157 147 114 102 209 231 123 101 102 104 163 115 94 118 28 2 81 21 40 23 28 71 19 37 120 161 100 117 42 11 264 256 308 302 168 144 170 192 157 88 163 168 163 142 109 65 45 38 43 42 66 94 63 277 240 224 197 195 266 280 221 203 218 185 147 159 200 207 214 210 196 180 152 118
223 218 210 198 196 200 198 218 212 187 162 170 159 145 140 100 68 173 217 231 66 121 127 106 197 99 115 131 160 184 102 13 352 84 88 101 43 44 85 109 81 79 13 331 294 303 333 331 242 221 169 131 100 70 39 53 97 109 93 70 62 339 7 21 356 45 143 255 259 261 220 179 235 263 241 225 211 173 163 173 186 192 197 194 190 184 171 155
220 217 210 199 198 200 195 212 212 198 187 171 156 135 125 122 206 206 226 11 128 200 154 156 172 130 145 122 125 170 129 96 308 114 134 144 146 172 177 165 154 73 341 248 266 335 297 231 249 286 188 137 110 80 28 24 56 87 99 93 83 331 1 356 314 16 227 251 269 324 358 208 240 250 232 222 214 206 204 188 180 182 184 182 181 177 168 161
219 215 209 203 201 203 204 210 206 200 195 174 157 138 130 182 217 200 194 199 192 175 129 120 104 127 139 116 237 189 116 153 193 141 119 103 147 221 256 198 162 119 106 191 197 343 305 297 306 136 248 182 143 146 178 193 106 135 147 129 123 105 58 296 274 272 273 272 278 288 267 243 270 273 230 227 240 250 260 235 188 176 174 173 169 163 160 167
217 213 208 205 204 207 210 210 204 197 188 171 157 154 163 208 232 153 177 215 228 68 86 102 104 109 125 154 226 182 138 204 157 122 72 75 116 230 252 240 174 108 102 144 185 169 161 310 240 172 237 190 170 180 161 141 144 175 160 132 143 151 156 226 233 224 266 290 300 283 213 199 226 246 245 247 271 291 273 216 160 144 148 147 141 147 161 175
215 210 205 201 205 212 213 212 214 200 184 170 158 173 190 215 224 126 185 207 190 107 51 66 106 110 133 216 265 198 176 218 128 114 107 141 175 201 201 214 194 147 124 154 222 154 149 263 261 254 276 155 170 204 122 110 118 205 133 114 157 178 171 213 201 172 188 304 296 237 212 224 195 175 309 294 322 357 42 136 134 132 134 134 147 168 178 186
207 203 202 200 206 213 212 213 214 200 185 172 177 195 212 218 173 183 197 157 159 152 117 68 88 111 188 242 273 225 174 133 131 130 191 194 201 210 207 220 194 178 163 154 203 161 122 269 285 322 345 114 132 195 109 116 182 163 119 179 224 181 147 179 267 112 98 274 270 199 245 283 323 1 338 15 34 35 71 134 145 150 150 155 178 189 190 194
192 193 198 201 208 212 211 212 207 195 188 184 201 206 235 232 173 198 232 97 135 136 126 152 167 145 187 203 218 210 146 126 143 150 207 214 212 199 208 250 191 186 192 166 217 198 134 266 287 78 123 336 5 127 59 39 125 126 173 219 220 141 102 104 256 1 33 261 273 216 242 270 278 272 335 22 314 218 169 163 152 154 167 180 194 197 197 195
181 181 192 204 209 210 210 210 201 191 189 206 211 214 206 206 216 345 311 90 70 83 120 176 204 149 169 180 204 198 160 165 158 158 186 219 235 178 173 221 168 196 216 145 119 241 120 259 297 1 133 311 4 85 46 356 59 124 192 209 113 152 181 92 139 251 262 264 281 289 274 259 220 225 226 216 220 202 184 182 172 179 187 191 197 200 198 189
170 168 193 199 199 204 206 202 192 183 208 210 212 222 172 189 258 262 267 267 85 91 128 179 78 81 142 157 172 187 168 168 163 171 179 180 231 197 158 190 143 304 274 146 159 237 104 149 285 321 208 266 26 72 172 275 11 76 126 358 65 165 178 139 141 179 224 258 271 290 304 278 230 208 184 204 208 183 176 189 193 195 195 194 195 193 191 185
153 155 239 173 178 189 190 183 172 176 223 203 204 215 114 15 259 269 299 320 50 70 132 157 101 127 148 131 155 180 125 145 160 172 200 186 221 244 244 159 130 70 347 111 145 171 79 164 244 311 330 237 178 195 190 191 178 128 163 253 241 162 131 243 227 144 155 208 238 275 284 268 250 194 183 211 210 181 184 192 196 200 198 198 198 188 182 182
128 148 185 160 164 167 164 162 167 184 182 171 213 209 172 151 237 310 336 23 61 45 107 136 137 145 148 136 174 177 110 118 157 156 219 226 200 229 263 78 138 156 80 84 137 195 154 159 200 254 296 209 228 239 201 185 176 166 183 199 196 178 164 256 258 186 129 185 192 235 268 267 258 200 197 222 211 193 197 196 195 202 200 198 197 185 181 186
142 147 166 167 163 160 156 164 192 156 151 195 190 172 156 131 115 294 335 30 59 61 75 96 115 133 157 161 169 159 132 146 174 162 211 222 199 201 215 74 128 136 110 109 206 216 132 119 190 244 230 217 240 261 151 170 145 140 193 199 173 160 157 207 240 232 193 238 151 167 265 270 257 214 230 238 226 213 206 199 198 205 201 196 192 186 189 195
151 90 96 168 166 163 167 193 178 159 175 173 146 141 147 137 130 177 346 17 49 90 85 112 155 183 202 167 152 164 162 174 184 182 202 217 213 225 207 168 102 57 75 250 299 359 71 104 198 269 281 298 335 37 67 60 85 125 238 188 147 181 180 196 223 201 188 233 195 172 255 261 274 207 245 251 242 227 206 193 190 191 189 190 192 192 197 196
106 85 21 187 176 171 187 194 172 179 176 126 132 163 122 123 169 174 185 212 196 133 145 181 185 208 211 144 143 169 170 175 200 202 200 202 219 267 332 203 185 152 189 212 190 179 237 134 111 310 304 315 327 339 6 360 22 202 241 225 188 208 183 146 193 121 218 231 214 222 249 251 259 28 7 20 78 178 204 188 180 183 185 191 195 196 196 191
116 101 11 329 17 85 212 183 122 163 169 147 162 173 149 151 195 187 187 194 191 166 164 194 164 138 129 108 105 151 171 178 203 220 201 210 250 317 349 291 219 190 218 177 150 155 176 167 146 213 258 264 268 258 240 275 266 203 249 257 225 208 195 199 245 215 231 230 214 231 251 257 306 1 15 25 90 151 206 198 194 199 193 191 193 189 187 189
117 86 60 3 11 27 318 68 85 124 162 163 172 180 189 209 245 198 187 199 210 176 139 135 111 81 94 148 150 191 204 195 193 212 199 200 254 288 340 340 359 240 241 125 127 120 109 187 202 218 237 247 257 258 219 148 183 230 242 233 222 219 209 213 239 233 232 239 231 237 239 228 273 278 284 266 216 200 212 203 202 211 201 193 189 185 187 191
120 152 160 119 11 237 266 277 151 134 161 172 179 184 194 203 213 194 191 210 211 162 126 131 150 160 192 167 166 208 205 194 202 217 208 192 246 286 256 53 21 257 181 105 100 110 116 237 226 220 236 244 253 261 213 145 226 245 253 248 236 230 209 209 232 231 208 248 252 241 182 153 255 260 222 221 225 216 220 215 205 203 199 193 186 183 188 188
123 139 174 86 72 199 230 226 181 189 213 194 189 187 193 200 200 193 192 211 197 166 181 213 196 203 200 168 166 199 193 198 213 210 198 188 217 280 284 171 281 227 145 66 345 113 146 243 236 219 237 246 250 254 204 189 237 242 247 250 242 234 218 216 231 223 186 228 254 241 148 185 249 253 201 209 216 209 214 212 200 197 199 191 183 182 186 188
101 71 308 24 61 192 275 205 161 191 216 204 206 221 211 209 207 198 145 123 194 212 204 220 220 207 199 179 171 197 206 208 217 203 182 193 201 202 242 264 286 1 115 123 323 146 166 243 243 217 243 252 251 241 204 211 244 243 244 246 242 242 233 222 232 227 207 233 254 242 199 226 239 213 196 220 219 208 220 198 175 193 201 181 178 194 198 196
128 187 168 63 71 130 353 31 148 190 218 204 220 231 226 227 221 201 128 161 189 209 204 221 226 196 186 188 186 216 223 210 218 219 180 189 213 185 208 231 189 78 122 151 212 257 213 242 239 148 242 260 252 210 189 211 230 242 253 251 246 249 246 216 220 219 216 241 248 237 236 251 248 176 189 242 200 172 226 231 204 208 201 177 193 214 212 206
95 74 104 111 181 168 141 96 141 183 215 203 222 228 221 231 219 193 214 211 198 192 190 211 222 189 177 200 204 225 232 203 212 222 180 184 211 189 201 212 155 142 182 177 153 209 207 235 39 108 236 258 242 188 197 211 222 244 254 252 248 245 230 214 211 203 207 226 239 243 248 259 251 142 160 278 212 191 225 232 227 226 202 190 212 223 215 210
102 54 78 108 196 193 168 144 144 193 217 206 221 228 219 229 209 180 215 241 199 193 185 194 203 186 191 217 218 226 226 164 189 206 162 168 181 156 177 189 160 156 169 176 174 160 171 179 138 168 235 261 248 168 168 164 206 247 246 240 236 234 231 231 241 228 216 209 217 236 245 249 159 130 151 246 235 224 233 233 231 236 221 207 219 223 217 217